,,,PA_Meas_PMT16A,,PR_Meas_QMR101_102,,RH_Meas_QMH101,,SR_Meas_QMS101,,TA_Meas_QMH101,,GenWind,,GenWind,
date,time,status,PA,status,PR,status,RH,status,SR,status,TA,status,DirAvg,status,SpdAvg,
2010-06-24, 00:00:04,VALID,1004.33,VALID,0,VALID,100.335,VALID,0,VALID,23.9742,VALID,351,VALID,0,
2010-06-24, 00:01:04,VALID,1004.37,VALID,0,VALID,100.327,VALID,0,VALID,23.9742,VALID,351,VALID,0,
2010-06-24, 00:02:04,VALID,1004.34,VALID,0,VALID,100.312,VALID,0,VALID,24.0521,VALID,351,VALID,0,
2010-06-24, 00:03:04,VALID,1004.31,VALID,0,VALID,100.358,VALID,0,VALID,24.0734,VALID,351,VALID,0,
2010-06-24, 00:04:04,VALID,1004.29,VALID,0,VALID,100.297,VALID,0,VALID,24.0716,VALID,351,VALID,0,
2010-06-24, 00:05:04,VALID,1004.28,VALID,0,VALID,100.327,VALID,0,VALID,24.13,VALID,351,VALID,0,
2010-06-24, 00:06:04,VALID,1004.25,VALID,0,VALID,100.32,VALID,0,VALID,24.1902,VALID,351,VALID,0,
2010-06-24, 00:07:04,VALID,1004.23,VALID,0,VALID,100.335,VALID,0,VALID,24.1884,VALID,350,VALID,0,
2010-06-24, 00:08:04,VALID,1004.23,VALID,0,VALID,100.305,VALID,0,VALID,24.1689,VALID,350,VALID,0,
2010-06-24, 00:09:04,VALID,1004.24,VALID,0,VALID,100.266,VALID,0,VALID,24.1689,VALID,350,VALID,0,
2010-06-24, 00:10:04,VALID,1004.28,VALID,0,VALID,100.213,VALID,0,VALID,24.1494,VALID,350,VALID,0,
2010-06-24, 00:11:04,VALID,1004.26,VALID,0,VALID,100.19,VALID,0,VALID,24.13,VALID,350,VALID,0,
2010-06-24, 00:12:04,VALID,1004.25,VALID,0,VALID,100.182,VALID,0,VALID,24.13,VALID,350,VALID,0,
2010-06-24, 00:13:04,VALID,1004.24,VALID,0,VALID,100.129,VALID,0,VALID,24.0892,VALID,350,VALID,0,
2010-06-24, 00:14:04,VALID,1004.23,VALID,0,VALID,100.129,VALID,0,VALID,24.1105,VALID,350,VALID,0,
2010-06-24, 00:15:04,VALID,1004.25,VALID,0,VALID,100.114,VALID,0,VALID,24.0716,VALID,350,VALID,0,
2010-06-24, 00:16:04,VALID,1004.23,VALID,0,VALID,100.129,VALID,0,VALID,24.0521,VALID,350,VALID,0,
2010-06-24, 00:17:04,VALID,1004.24,VALID,0,VALID,100.152,VALID,0,VALID,24.0326,VALID,350,VALID,0,
2010-06-24, 00:18:04,VALID,1004.22,VALID,0,VALID,100.16,VALID,0,VALID,23.9937,VALID,350,VALID,0,
2010-06-24, 00:19:04,VALID,1004.22,VALID,0,VALID,100.205,VALID,0,VALID,23.9937,VALID,350,VALID,0,
2010-06-24, 00:20:04,VALID,1004.22,VALID,0,VALID,100.182,VALID,0,VALID,23.9742,VALID,350,VALID,0,
2010-06-24, 00:21:04,VALID,1004.23,VALID,0,VALID,100.19,VALID,0,VALID,23.9548,VALID,350,VALID,0,
2010-06-24, 00:22:04,VALID,1004.2,VALID,0,VALID,100.198,VALID,0,VALID,23.9159,VALID,350,VALID,0,
2010-06-24, 00:23:04,VALID,1004.18,VALID,0,VALID,100.198,VALID,0,VALID,23.8964,VALID,350,VALID,0,
2010-06-24, 00:24:04,VALID,1004.15,VALID,0,VALID,100.205,VALID,0,VALID,23.9566,VALID,350,VALID,0,
2010-06-24, 00:25:04,VALID,1004.13,VALID,0,VALID,100.259,VALID,0,VALID,23.9335,VALID,350,VALID,0,
2010-06-24, 00:26:04,VALID,1004.12,VALID,0,VALID,100.282,VALID,0,VALID,23.9937,VALID,350,VALID,0,
2010-06-24, 00:27:04,VALID,1004.14,VALID,0,VALID,100.32,VALID,0,VALID,24.0345,VALID,350,VALID,0,
2010-06-24, 00:28:04,VALID,1004.13,VALID,0,VALID,100.312,VALID,0,VALID,23.9742,VALID,350,VALID,0,
2010-06-24, 00:29:04,VALID,1004.14,VALID,0,VALID,100.289,VALID,0,VALID,23.9742,VALID,350,VALID,0,
2010-06-24, 00:30:04,VALID,1004.12,VALID,0,VALID,100.266,VALID,0,VALID,23.9335,VALID,350,VALID,0,
2010-06-24, 00:31:04,VALID,1004.11,VALID,0,VALID,100.274,VALID,0,VALID,23.9742,VALID,350,VALID,0,
2010-06-24, 00:32:04,VALID,1004.08,VALID,0,VALID,100.274,VALID,0,VALID,23.9742,VALID,350,VALID,0,
2010-06-24, 00:33:04,VALID,1004.06,VALID,0,VALID,100.274,VALID,0,VALID,23.9548,VALID,350,VALID,0,
2010-06-24, 00:34:04,VALID,1004.06,VALID,0,VALID,100.259,VALID,0.100563,VALID,23.9742,VALID,354,VALID,0,
2010-06-24, 00:35:04,VALID,1004.05,VALID,0,VALID,100.243,VALID,0,VALID,23.9548,VALID,354,VALID,0,
2010-06-24, 00:36:04,VALID,1004.05,VALID,0,VALID,100.243,VALID,0,VALID,23.9761,VALID,354,VALID,0,
2010-06-24, 00:37:04,VALID,1004.04,VALID,0,VALID,100.266,VALID,0,VALID,23.9548,VALID,354,VALID,0,
2010-06-24, 00:38:04,VALID,1004.04,VALID,0,VALID,100.259,VALID,0,VALID,23.9353,VALID,354,VALID,0,
2010-06-24, 00:39:04,VALID,1004.02,VALID,0,VALID,100.251,VALID,0,VALID,23.9548,VALID,353,VALID,0.0289063,
2010-06-24, 00:40:04,VALID,1003.99,VALID,0,VALID,100.266,VALID,0,VALID,23.9955,VALID,353,VALID,0.595703,
2010-06-24, 00:41:04,VALID,1003.99,VALID,0,VALID,100.289,VALID,0,VALID,23.9955,VALID,352,VALID,0.182031,
2010-06-24, 00:42:04,VALID,1003.98,VALID,0,VALID,100.282,VALID,0,VALID,23.9742,VALID,352,VALID,0,
2010-06-24, 00:43:04,VALID,1003.99,VALID,0,VALID,100.243,VALID,0,VALID,23.9937,VALID,346,VALID,0.326953,
2010-06-24, 00:44:04,VALID,1004.01,VALID,0,VALID,100.251,VALID,0,VALID,24.0132,VALID,346,VALID,0,
2010-06-24, 00:45:04,VALID,1003.99,VALID,0,VALID,100.251,VALID,0,VALID,24.0326,VALID,346,VALID,0.065625,
2010-06-24, 00:46:04,VALID,1004,VALID,0,VALID,100.251,VALID,0,VALID,24.091,VALID,346,VALID,0.0621094,
2010-06-24, 00:47:04,VALID,1003.98,VALID,0,VALID,100.297,VALID,0,VALID,24.1105,VALID,347,VALID,0.328125,
2010-06-24, 00:48:04,VALID,1003.94,VALID,0,VALID,100.274,VALID,0,VALID,24.2078,VALID,342,VALID,0.303125,
2010-06-24, 00:49:04,VALID,1003.93,VALID,0,VALID,100.282,VALID,0,VALID,24.2875,VALID,342,VALID,0.184766,
2010-06-24, 00:50:04,VALID,1003.91,VALID,0,VALID,100.312,VALID,0.100563,VALID,24.3052,VALID,344,VALID,0.457031,
2010-06-24, 00:51:04,VALID,1003.89,VALID,0,VALID,100.243,VALID,0.100563,VALID,24.3441,VALID,340,VALID,0.283594,
2010-06-24, 00:52:04,VALID,1003.87,VALID,0,VALID,100.16,VALID,0,VALID,24.3422,VALID,341,VALID,0.448828,
2010-06-24, 00:53:04,VALID,1003.81,VALID,0,VALID,100.038,VALID,0,VALID,24.383,VALID,339,VALID,0.419141,
2010-06-24, 00:54:04,VALID,1003.81,VALID,0,VALID,99.9231,VALID,0,VALID,24.4025,VALID,309,VALID,0.28125,
2010-06-24, 00:55:04,VALID,1003.84,VALID,0,VALID,99.7858,VALID,0,VALID,24.383,VALID,309,VALID,0.255859,
2010-06-24, 00:56:04,VALID,1003.85,VALID,0,VALID,99.6942,VALID,0,VALID,24.422,VALID,312,VALID,0.379297,
2010-06-24, 00:57:04,VALID,1003.87,VALID,0,VALID,99.6484,VALID,0,VALID,24.4025,VALID,319,VALID,0.207422,
2010-06-24, 00:58:04,VALID,1003.91,VALID,0,VALID,99.5569,VALID,0,VALID,24.4025,VALID,357,VALID,0.918359,
2010-06-24, 00:59:04,VALID,1003.89,VALID,0,VALID,99.473,VALID,0,VALID,24.4025,VALID,340,VALID,0.714844,
2010-06-24, 01:00:04,VALID,1003.9,VALID,0,VALID,99.267,VALID,0,VALID,24.383,VALID,342,VALID,0.587891,
2010-06-24, 01:01:04,VALID,1003.89,VALID,0,VALID,99.2288,VALID,0,VALID,24.3636,VALID,348,VALID,0.508984,
2010-06-24, 01:02:04,VALID,1003.9,VALID,0,VALID,99.2746,VALID,0,VALID,24.3636,VALID,347,VALID,0.327734,
2010-06-24, 01:03:04,VALID,1003.91,VALID,0,VALID,99.1907,VALID,0,VALID,24.3636,VALID,337,VALID,0.469531,
2010-06-24, 01:04:04,VALID,1003.88,VALID,0,VALID,99.1983,VALID,0,VALID,24.3849,VALID,337,VALID,0.43125,
2010-06-24, 01:05:04,VALID,1003.87,VALID,0,VALID,99.1068,VALID,0,VALID,24.3654,VALID,337,VALID,0.360156,
2010-06-24, 01:06:04,VALID,1003.84,VALID,0,VALID,99.0686,VALID,0,VALID,24.3441,VALID,342,VALID,0.616016,
2010-06-24, 01:07:04,VALID,1003.83,VALID,0,VALID,99.1297,VALID,0,VALID,24.383,VALID,342,VALID,0.629297,
2010-06-24, 01:08:04,VALID,1003.84,VALID,0,VALID,98.9084,VALID,0,VALID,24.3246,VALID,342,VALID,0.646484,
2010-06-24, 01:09:04,VALID,1003.83,VALID,0,VALID,98.9313,VALID,0,VALID,24.3052,VALID,341,VALID,0.486719,
2010-06-24, 01:10:04,VALID,1003.84,VALID,0,VALID,98.9771,VALID,0.100563,VALID,24.2681,VALID,341,VALID,0.577734,
2010-06-24, 01:11:04,VALID,1003.86,VALID,0,VALID,99.2517,VALID,0.100563,VALID,24.206,VALID,341,VALID,0.363281,
2010-06-24, 01:12:04,VALID,1003.86,VALID,0,VALID,99.4043,VALID,0,VALID,24.2486,VALID,341,VALID,0.522656,
2010-06-24, 01:13:04,VALID,1003.84,VALID,0,VALID,99.4577,VALID,0,VALID,24.2273,VALID,341,VALID,0.386328,
2010-06-24, 01:14:04,VALID,1003.84,VALID,0,VALID,99.534,VALID,0,VALID,24.2078,VALID,340,VALID,0.530078,
2010-06-24, 01:15:04,VALID,1003.81,VALID,0,VALID,99.6027,VALID,0.100563,VALID,24.2273,VALID,340,VALID,0.528906,
2010-06-24, 01:16:04,VALID,1003.8,VALID,0,VALID,99.6408,VALID,0,VALID,24.2857,VALID,339,VALID,0.548437,
2010-06-24, 01:17:04,VALID,1003.78,VALID,0,VALID,99.6637,VALID,0.100563,VALID,24.3052,VALID,340,VALID,0.549609,
2010-06-24, 01:18:04,VALID,1003.79,VALID,0,VALID,99.5111,VALID,0,VALID,24.3441,VALID,340,VALID,0.570703,
2010-06-24, 01:19:04,VALID,1003.75,VALID,0,VALID,99.3891,VALID,0.100563,VALID,24.3246,VALID,340,VALID,0.548437,
2010-06-24, 01:20:04,VALID,1003.72,VALID,0,VALID,99.3051,VALID,0,VALID,24.3246,VALID,341,VALID,0.642187,
2010-06-24, 01:21:04,VALID,1003.74,VALID,0,VALID,99.328,VALID,0,VALID,24.307,VALID,341,VALID,0.562109,
2010-06-24, 01:22:04,VALID,1003.73,VALID,0,VALID,99.3814,VALID,0.100563,VALID,24.3052,VALID,341,VALID,0.663281,
2010-06-24, 01:23:04,VALID,1003.72,VALID,0,VALID,99.3891,VALID,0,VALID,24.3088,VALID,341,VALID,0.425781,
2010-06-24, 01:24:04,VALID,1003.73,VALID,0,VALID,99.4119,VALID,0,VALID,24.2662,VALID,341,VALID,0.377344,
2010-06-24, 01:25:04,VALID,1003.72,VALID,0,VALID,99.4043,VALID,0,VALID,24.2273,VALID,341,VALID,0.453906,
2010-06-24, 01:26:04,VALID,1003.75,VALID,0,VALID,99.4653,VALID,0,VALID,24.2078,VALID,341,VALID,0.482812,
2010-06-24, 01:27:04,VALID,1003.71,VALID,0,VALID,99.473,VALID,0,VALID,24.1884,VALID,341,VALID,0.379297,
2010-06-24, 01:28:04,VALID,1003.73,VALID,0,VALID,99.5416,VALID,0,VALID,24.1689,VALID,341,VALID,0.171484,
2010-06-24, 01:29:04,VALID,1003.73,VALID,0,VALID,99.5798,VALID,0,VALID,24.1494,VALID,341,VALID,0,
2010-06-24, 01:30:04,VALID,1003.74,VALID,0,VALID,99.6332,VALID,0.100563,VALID,24.1494,VALID,341,VALID,0,
2010-06-24, 01:31:04,VALID,1003.73,VALID,0,VALID,99.6713,VALID,0,VALID,24.13,VALID,341,VALID,0,
2010-06-24, 01:32:04,VALID,1003.74,VALID,0,VALID,99.6332,VALID,0,VALID,24.1105,VALID,341,VALID,0,
2010-06-24, 01:33:04,VALID,1003.75,VALID,0,VALID,99.6179,VALID,0,VALID,24.091,VALID,341,VALID,0,
2010-06-24, 01:34:04,VALID,1003.74,VALID,0,VALID,99.6255,VALID,0,VALID,24.0716,VALID,341,VALID,0,
2010-06-24, 01:35:04,VALID,1003.73,VALID,0,VALID,99.6179,VALID,0,VALID,24.0326,VALID,341,VALID,0,
2010-06-24, 01:36:04,VALID,1003.69,VALID,0,VALID,99.534,VALID,0.100563,VALID,23.9548,VALID,341,VALID,0,
2010-06-24, 01:37:04,VALID,1003.69,VALID,0,VALID,99.5569,VALID,0,VALID,23.8964,VALID,341,VALID,0,
2010-06-24, 01:38:04,VALID,1003.66,VALID,0,VALID,99.6866,VALID,0,VALID,23.8769,VALID,341,VALID,0,
2010-06-24, 01:39:04,VALID,1003.64,VALID,0,VALID,99.7552,VALID,0,VALID,23.838,VALID,341,VALID,0,
2010-06-24, 01:40:04,VALID,1003.62,VALID,0,VALID,99.7705,VALID,0,VALID,23.7796,VALID,341,VALID,0,
2010-06-24, 01:41:04,VALID,1003.62,VALID,0,VALID,99.7629,VALID,0,VALID,23.7212,VALID,341,VALID,0,
2010-06-24, 01:42:04,VALID,1003.62,VALID,0,VALID,99.8239,VALID,0.100563,VALID,23.7,VALID,341,VALID,0,
2010-06-24, 01:43:04,VALID,1003.61,VALID,0,VALID,99.9002,VALID,0,VALID,23.6823,VALID,341,VALID,0,
2010-06-24, 01:44:04,VALID,1003.58,VALID,0,VALID,100.022,VALID,0,VALID,23.6628,VALID,341,VALID,0,
2010-06-24, 01:45:04,VALID,1003.59,VALID,0,VALID,100.068,VALID,0,VALID,23.6434,VALID,341,VALID,0,
2010-06-24, 01:46:04,VALID,1003.55,VALID,0,VALID,100.114,VALID,0,VALID,23.6044,VALID,341,VALID,0,
2010-06-24, 01:47:04,VALID,1003.54,VALID,0,VALID,100.121,VALID,0,VALID,23.6257,VALID,341,VALID,0,
2010-06-24, 01:48:04,VALID,1003.52,VALID,0,VALID,100.167,VALID,0,VALID,23.6062,VALID,341,VALID,0,
2010-06-24, 01:49:04,VALID,1003.52,VALID,0,VALID,100.205,VALID,0,VALID,23.6062,VALID,341,VALID,0,
2010-06-24, 01:50:04,VALID,1003.48,VALID,0,VALID,100.228,VALID,0,VALID,23.6275,VALID,341,VALID,0,
2010-06-24, 01:51:04,VALID,1003.46,VALID,0,VALID,100.243,VALID,0,VALID,23.5868,VALID,341,VALID,0,
2010-06-24, 01:52:04,VALID,1003.45,VALID,0,VALID,100.274,VALID,0,VALID,23.546,VALID,341,VALID,0,
2010-06-24, 01:53:04,VALID,1003.42,VALID,0,VALID,100.289,VALID,0,VALID,23.546,VALID,341,VALID,0,
2010-06-24, 01:54:04,VALID,1003.41,VALID,0,VALID,100.32,VALID,0,VALID,23.5691,VALID,341,VALID,0,
2010-06-24, 01:55:04,VALID,1003.4,VALID,0,VALID,100.32,VALID,0,VALID,23.5478,VALID,341,VALID,0,
2010-06-24, 01:56:04,VALID,1003.38,VALID,0,VALID,100.335,VALID,0,VALID,23.5478,VALID,341,VALID,0,
2010-06-24, 01:57:04,VALID,1003.36,VALID,0,VALID,100.358,VALID,0,VALID,23.5089,VALID,341,VALID,0,
2010-06-24, 01:58:04,VALID,1003.38,VALID,0,VALID,100.358,VALID,0,VALID,23.4894,VALID,341,VALID,0,
2010-06-24, 01:59:04,VALID,1003.38,VALID,0,VALID,100.373,VALID,0,VALID,23.5496,VALID,341,VALID,0,
2010-06-24, 02:00:04,VALID,1003.39,VALID,0,VALID,100.381,VALID,0,VALID,23.4894,VALID,341,VALID,0,
2010-06-24, 02:01:04,VALID,1003.39,VALID,0,VALID,100.388,VALID,0,VALID,23.4682,VALID,341,VALID,0,
2010-06-24, 02:02:04,VALID,1003.4,VALID,0,VALID,100.388,VALID,0,VALID,23.4487,VALID,341,VALID,0.0539063,
2010-06-24, 02:03:04,VALID,1003.39,VALID,0,VALID,100.404,VALID,0,VALID,23.4293,VALID,341,VALID,0.332031,
2010-06-24, 02:04:04,VALID,1003.38,VALID,0,VALID,100.396,VALID,0,VALID,23.4098,VALID,341,VALID,0.209766,
2010-06-24, 02:05:04,VALID,1003.39,VALID,0,VALID,100.396,VALID,0,VALID,23.3904,VALID,341,VALID,0.0480469,
2010-06-24, 02:06:04,VALID,1003.37,VALID,0,VALID,100.419,VALID,0,VALID,23.3514,VALID,341,VALID,0,
2010-06-24, 02:07:04,VALID,1003.35,VALID,0,VALID,100.427,VALID,0,VALID,23.332,VALID,341,VALID,0,
2010-06-24, 02:08:04,VALID,1003.38,VALID,0,VALID,100.411,VALID,0,VALID,23.3125,VALID,341,VALID,0,
2010-06-24, 02:09:04,VALID,1003.36,VALID,0,VALID,100.427,VALID,0,VALID,23.2931,VALID,341,VALID,0,
2010-06-24, 02:10:04,VALID,1003.37,VALID,0,VALID,100.419,VALID,0,VALID,23.2736,VALID,341,VALID,0,
2010-06-24, 02:11:04,VALID,1003.38,VALID,0,VALID,100.419,VALID,0,VALID,23.3143,VALID,341,VALID,0,
2010-06-24, 02:12:04,VALID,1003.38,VALID,0,VALID,100.434,VALID,0.100563,VALID,23.2736,VALID,341,VALID,0,
2010-06-24, 02:13:04,VALID,1003.39,VALID,0,VALID,100.449,VALID,0,VALID,23.2541,VALID,341,VALID,0,
2010-06-24, 02:14:04,VALID,1003.4,VALID,0,VALID,100.465,VALID,0,VALID,23.2152,VALID,341,VALID,0,
2010-06-24, 02:15:04,VALID,1003.41,VALID,0,VALID,100.442,VALID,0,VALID,23.2152,VALID,341,VALID,0,
2010-06-24, 02:16:04,VALID,1003.37,VALID,0,VALID,100.457,VALID,0,VALID,23.1745,VALID,341,VALID,0,
2010-06-24, 02:17:04,VALID,1003.37,VALID,0,VALID,100.434,VALID,0,VALID,23.1957,VALID,341,VALID,0,
2010-06-24, 02:18:04,VALID,1003.35,VALID,0,VALID,100.457,VALID,0,VALID,23.1957,VALID,341,VALID,0,
2010-06-24, 02:19:04,VALID,1003.33,VALID,0,VALID,100.442,VALID,0,VALID,23.1763,VALID,341,VALID,0,
2010-06-24, 02:20:04,VALID,1003.31,VALID,0,VALID,100.419,VALID,0,VALID,23.2152,VALID,341,VALID,0,
2010-06-24, 02:21:04,VALID,1003.33,VALID,0,VALID,100.396,VALID,0,VALID,23.2541,VALID,341,VALID,0,
2010-06-24, 02:22:04,VALID,1003.3,VALID,0,VALID,100.388,VALID,0,VALID,23.2736,VALID,341,VALID,0,
2010-06-24, 02:23:04,VALID,1003.3,VALID,0,VALID,100.404,VALID,0,VALID,23.2541,VALID,341,VALID,0,
2010-06-24, 02:24:04,VALID,1003.31,VALID,0,VALID,100.404,VALID,0,VALID,23.2541,VALID,341,VALID,0,
2010-06-24, 02:25:04,VALID,1003.26,VALID,0,VALID,100.381,VALID,0,VALID,23.2718,VALID,341,VALID,0,
2010-06-24, 02:26:04,VALID,1003.24,VALID,0,VALID,100.388,VALID,0,VALID,23.2736,VALID,341,VALID,0,
2010-06-24, 02:27:04,VALID,1003.21,VALID,0,VALID,100.396,VALID,0.100563,VALID,23.2754,VALID,341,VALID,0,
2010-06-24, 02:28:04,VALID,1003.2,VALID,0,VALID,100.434,VALID,0.100563,VALID,23.2152,VALID,341,VALID,0,
2010-06-24, 02:29:04,VALID,1003.18,VALID,0,VALID,100.419,VALID,0,VALID,23.1763,VALID,341,VALID,0,
2010-06-24, 02:30:04,VALID,1003.18,VALID,0,VALID,100.404,VALID,0,VALID,23.1763,VALID,341,VALID,0,
2010-06-24, 02:31:04,VALID,1003.18,VALID,0,VALID,100.358,VALID,0.100563,VALID,23.1957,VALID,341,VALID,0,
2010-06-24, 02:32:04,VALID,1003.13,VALID,0,VALID,100.35,VALID,0,VALID,23.2134,VALID,341,VALID,0,
2010-06-24, 02:33:04,VALID,1003.16,VALID,0,VALID,100.327,VALID,0,VALID,23.2134,VALID,341,VALID,0,
2010-06-24, 02:34:04,VALID,1003.16,VALID,0,VALID,100.381,VALID,0,VALID,23.194,VALID,341,VALID,0,
2010-06-24, 02:35:04,VALID,1003.18,VALID,0,VALID,100.396,VALID,0,VALID,23.1568,VALID,341,VALID,0,
2010-06-24, 02:36:04,VALID,1003.17,VALID,0,VALID,100.381,VALID,0,VALID,23.1586,VALID,341,VALID,0,
2010-06-24, 02:37:04,VALID,1003.17,VALID,0,VALID,100.388,VALID,0,VALID,23.1374,VALID,341,VALID,0,
2010-06-24, 02:38:04,VALID,1003.16,VALID,0,VALID,100.35,VALID,0,VALID,23.1568,VALID,341,VALID,0,
2010-06-24, 02:39:04,VALID,1003.18,VALID,0,VALID,100.335,VALID,0,VALID,23.1568,VALID,341,VALID,0,
2010-06-24, 02:40:04,VALID,1003.16,VALID,0,VALID,100.312,VALID,0.100563,VALID,23.1957,VALID,341,VALID,0,
2010-06-24, 02:41:04,VALID,1003.13,VALID,0,VALID,100.366,VALID,0,VALID,23.178,VALID,341,VALID,0.184375,
2010-06-24, 02:42:04,VALID,1003.15,VALID,0,VALID,100.381,VALID,0,VALID,23.1179,VALID,341,VALID,0,
2010-06-24, 02:43:04,VALID,1003.16,VALID,0,VALID,100.373,VALID,0,VALID,23.0984,VALID,341,VALID,0.0265625,
2010-06-24, 02:44:04,VALID,1003.14,VALID,0,VALID,100.335,VALID,0,VALID,23.1197,VALID,341,VALID,0.285156,
2010-06-24, 02:45:04,VALID,1003.15,VALID,0,VALID,100.305,VALID,0,VALID,23.1179,VALID,341,VALID,0,
2010-06-24, 02:46:04,VALID,1003.16,VALID,0,VALID,100.274,VALID,0,VALID,23.1763,VALID,341,VALID,0,
2010-06-24, 02:47:04,VALID,1003.18,VALID,0,VALID,100.243,VALID,0,VALID,23.2152,VALID,341,VALID,0.106641,
2010-06-24, 02:48:04,VALID,1003.17,VALID,0,VALID,100.228,VALID,0,VALID,23.2754,VALID,341,VALID,0,
2010-06-24, 02:49:04,VALID,1003.18,VALID,0,VALID,100.297,VALID,0,VALID,23.1957,VALID,341,VALID,0,
2010-06-24, 02:50:04,VALID,1003.21,VALID,0,VALID,100.343,VALID,0,VALID,23.1374,VALID,341,VALID,0,
2010-06-24, 02:51:04,VALID,1003.21,VALID,0,VALID,100.297,VALID,0,VALID,23.1197,VALID,341,VALID,0,
2010-06-24, 02:52:04,VALID,1003.21,VALID,0,VALID,100.312,VALID,0,VALID,23.1179,VALID,341,VALID,0,
2010-06-24, 02:53:04,VALID,1003.25,VALID,0,VALID,100.282,VALID,0,VALID,23.1179,VALID,341,VALID,0,
2010-06-24, 02:54:04,VALID,1003.22,VALID,0,VALID,100.266,VALID,0,VALID,23.1179,VALID,341,VALID,0,
2010-06-24, 02:55:04,VALID,1003.21,VALID,0,VALID,100.312,VALID,0,VALID,23.079,VALID,341,VALID,0,
2010-06-24, 02:56:04,VALID,1003.2,VALID,0,VALID,100.297,VALID,0,VALID,23.0595,VALID,341,VALID,0,
2010-06-24, 02:57:04,VALID,1003.18,VALID,0,VALID,100.289,VALID,0,VALID,23.0595,VALID,341,VALID,0,
2010-06-24, 02:58:04,VALID,1003.2,VALID,0,VALID,100.282,VALID,0,VALID,23.0401,VALID,341,VALID,0,
2010-06-24, 02:59:04,VALID,1003.18,VALID,0,VALID,100.282,VALID,0,VALID,23.0189,VALID,341,VALID,0,
2010-06-24, 03:00:04,VALID,1003.15,VALID,0,VALID,100.213,VALID,0.100563,VALID,23.0984,VALID,341,VALID,0,
2010-06-24, 03:01:04,VALID,1003.15,VALID,0,VALID,100.129,VALID,0.100563,VALID,23.1356,VALID,341,VALID,0,
2010-06-24, 03:02:04,VALID,1003.13,VALID,0,VALID,100.175,VALID,0,VALID,23.1957,VALID,341,VALID,0,
2010-06-24, 03:03:04,VALID,1003.14,VALID,0,VALID,100.19,VALID,0,VALID,23.1957,VALID,341,VALID,0,
2010-06-24, 03:04:04,VALID,1003.12,VALID,0,VALID,100.182,VALID,0,VALID,23.1763,VALID,341,VALID,0,
2010-06-24, 03:05:04,VALID,1003.12,VALID,0,VALID,100.167,VALID,0,VALID,23.1975,VALID,341,VALID,0,
2010-06-24, 03:06:04,VALID,1003.12,VALID,0,VALID,100.099,VALID,0,VALID,23.2134,VALID,341,VALID,0,
2010-06-24, 03:07:04,VALID,1003.15,VALID,0,VALID,100.121,VALID,0,VALID,23.2329,VALID,341,VALID,0,
2010-06-24, 03:08:04,VALID,1003.18,VALID,0,VALID,100.114,VALID,0.100563,VALID,23.2117,VALID,341,VALID,0,
2010-06-24, 03:09:04,VALID,1003.2,VALID,0,VALID,100.099,VALID,0,VALID,23.2541,VALID,341,VALID,0,
2010-06-24, 03:10:04,VALID,1003.22,VALID,0,VALID,100.038,VALID,0.100563,VALID,23.3107,VALID,341,VALID,0,
2010-06-24, 03:11:04,VALID,1003.21,VALID,0,VALID,100.015,VALID,0,VALID,23.3709,VALID,341,VALID,0,
2010-06-24, 03:12:04,VALID,1003.22,VALID,0,VALID,100.038,VALID,0,VALID,23.3709,VALID,341,VALID,0,
2010-06-24, 03:13:04,VALID,1003.22,VALID,0,VALID,100.083,VALID,0,VALID,23.3532,VALID,341,VALID,0,
2010-06-24, 03:14:04,VALID,1003.23,VALID,0,VALID,100.114,VALID,0,VALID,23.2541,VALID,341,VALID,0,
2010-06-24, 03:15:04,VALID,1003.22,VALID,0,VALID,100.16,VALID,0,VALID,23.217,VALID,341,VALID,0,
2010-06-24, 03:16:04,VALID,1003.2,VALID,0,VALID,100.175,VALID,0,VALID,23.1356,VALID,341,VALID,0,
2010-06-24, 03:17:04,VALID,1003.22,VALID,0,VALID,100.221,VALID,0,VALID,23.0984,VALID,4,VALID,0,
2010-06-24, 03:18:04,VALID,1003.22,VALID,0,VALID,100.228,VALID,0,VALID,23.0401,VALID,5,VALID,0,
2010-06-24, 03:19:04,VALID,1003.22,VALID,0,VALID,100.221,VALID,0,VALID,23.0206,VALID,12,VALID,0.0761719,
2010-06-24, 03:20:04,VALID,1003.25,VALID,0,VALID,100.228,VALID,0,VALID,23.0418,VALID,17,VALID,0.405859,
2010-06-24, 03:21:04,VALID,1003.22,VALID,0,VALID,100.182,VALID,0,VALID,23.0383,VALID,17,VALID,0.610156,
2010-06-24, 03:22:04,VALID,1003.23,VALID,0,VALID,100.114,VALID,0,VALID,23.0984,VALID,17,VALID,0.480859,
2010-06-24, 03:23:04,VALID,1003.22,VALID,0,VALID,100.099,VALID,0.100563,VALID,23.1763,VALID,17,VALID,0.470703,
2010-06-24, 03:24:04,VALID,1003.2,VALID,0,VALID,100.053,VALID,0,VALID,23.1957,VALID,17,VALID,0.496875,
2010-06-24, 03:25:04,VALID,1003.25,VALID,0,VALID,100.045,VALID,0,VALID,23.2347,VALID,17,VALID,0.505469,
2010-06-24, 03:26:04,VALID,1003.27,VALID,0,VALID,99.9765,VALID,0.100563,VALID,23.332,VALID,11,VALID,0.531641,
2010-06-24, 03:27:04,VALID,1003.28,VALID,0,VALID,99.8926,VALID,0,VALID,23.4293,VALID,357,VALID,0.419141,
2010-06-24, 03:28:04,VALID,1003.27,VALID,0,VALID,99.9231,VALID,0,VALID,23.4682,VALID,357,VALID,0.528125,
2010-06-24, 03:29:04,VALID,1003.27,VALID,0,VALID,99.9231,VALID,0.100563,VALID,23.4877,VALID,357,VALID,0.225,
2010-06-24, 03:30:04,VALID,1003.28,VALID,0,VALID,99.9612,VALID,0.100563,VALID,23.4877,VALID,357,VALID,0.577344,
2010-06-24, 03:31:04,VALID,1003.28,VALID,0,VALID,99.9994,VALID,0.100563,VALID,23.4487,VALID,357,VALID,0.426953,
2010-06-24, 03:32:04,VALID,1003.28,VALID,0,VALID,100.038,VALID,0,VALID,23.3709,VALID,357,VALID,0.536328,
2010-06-24, 03:33:04,VALID,1003.3,VALID,0,VALID,100.076,VALID,0.100563,VALID,23.332,VALID,357,VALID,0.347656,
2010-06-24, 03:34:04,VALID,1003.32,VALID,0,VALID,100.053,VALID,0,VALID,23.3125,VALID,357,VALID,0.25,
2010-06-24, 03:35:04,VALID,1003.32,VALID,0,VALID,100.068,VALID,0.100563,VALID,23.3125,VALID,357,VALID,0.125391,
2010-06-24, 03:36:04,VALID,1003.32,VALID,0,VALID,100.03,VALID,0.100563,VALID,23.332,VALID,357,VALID,0.210547,
2010-06-24, 03:37:04,VALID,1003.3,VALID,0,VALID,100.068,VALID,0,VALID,23.2736,VALID,357,VALID,0.271875,
2010-06-24, 03:38:04,VALID,1003.29,VALID,0,VALID,100.114,VALID,0,VALID,23.2364,VALID,357,VALID,0.430078,
2010-06-24, 03:39:04,VALID,1003.29,VALID,0,VALID,100.16,VALID,0,VALID,23.1568,VALID,357,VALID,0.4875,
2010-06-24, 03:40:04,VALID,1003.29,VALID,0,VALID,100.19,VALID,0,VALID,23.1179,VALID,357,VALID,0.420703,
2010-06-24, 03:41:04,VALID,1003.33,VALID,0,VALID,100.175,VALID,0.100563,VALID,23.0984,VALID,357,VALID,0.317187,
2010-06-24, 03:42:04,VALID,1003.33,VALID,0,VALID,100.152,VALID,0,VALID,23.0772,VALID,357,VALID,0.286328,
2010-06-24, 03:43:04,VALID,1003.36,VALID,0,VALID,100.129,VALID,0.100563,VALID,23.1179,VALID,357,VALID,0.5125,
2010-06-24, 03:44:04,VALID,1003.35,VALID,0,VALID,100.129,VALID,0,VALID,23.1586,VALID,357,VALID,0.452734,
2010-06-24, 03:45:04,VALID,1003.35,VALID,0,VALID,100.121,VALID,0,VALID,23.1179,VALID,357,VALID,0.56875,
2010-06-24, 03:46:04,VALID,1003.31,VALID,0,VALID,100.16,VALID,0.100563,VALID,23.0984,VALID,357,VALID,0.571875,
2010-06-24, 03:47:04,VALID,1003.34,VALID,0,VALID,100.182,VALID,0,VALID,23.079,VALID,357,VALID,0.466406,
2010-06-24, 03:48:04,VALID,1003.34,VALID,0,VALID,100.182,VALID,0,VALID,23.1002,VALID,357,VALID,0.55,
2010-06-24, 03:49:04,VALID,1003.35,VALID,0,VALID,100.091,VALID,0,VALID,23.1374,VALID,357,VALID,0.547656,
2010-06-24, 03:50:04,VALID,1003.33,VALID,0,VALID,100.022,VALID,0,VALID,23.2347,VALID,357,VALID,0.046875,
2010-06-24, 03:51:04,VALID,1003.33,VALID,0,VALID,99.9841,VALID,0,VALID,23.3107,VALID,357,VALID,0.192188,